Location: Newark
(44.1667°N, 8.2500°E)
Time: 23:51:53
(UTC+00:00)

deb Explorer IX - Visible Passes

Search period start: 21 January 2021 00:00
Search period end: 31 January 2021 00:00
Orbit: 536 x 1104 km, 38.8° (Epoch: 21 January)

Date Brightness Start Highest point End Pass type
(mag) Time Alt. Az. Time Alt. Az. Time Alt. Az.
21 Jan ? 17:35:29 10° SSW 17:40:21 24° SSE 17:43:33 15° ESE visible
21 Jan ? 19:21:23 10° WSW 19:24:49 31° SW 19:24:49 31° SW visible
22 Jan ? 17:11:35 10° SSW 17:16:39 25° SSE 17:21:10 10° ESE visible
22 Jan ? 18:57:32 10° WSW 19:02:34 43° S 19:02:34 43° S visible
23 Jan ? 16:47:40 10° SSW 16:52:57 26° SSE 16:57:40 10° E visible
23 Jan ? 18:33:40 10° WSW 18:39:28 45° S 18:40:17 42° SSE visible
23 Jan ? 20:20:45 10° W 20:21:32 14° WSW 20:21:32 14° WSW visible
24 Jan ? 18:09:47 10° WSW 18:15:47 46° S 18:17:59 31° ESE visible
24 Jan ? 19:56:54 10° W 19:59:14 23° WSW 19:59:14 23° WSW visible
25 Jan ? 17:45:53 10° WSW 17:52:04 47° S 17:55:40 20° ESE visible
25 Jan ? 19:33:02 10° W 19:36:55 35° SW 19:36:55 35° SW visible
26 Jan ? 17:21:58 10° WSW 17:28:20 48° S 17:33:22 12° E visible
26 Jan ? 19:09:09 10° W 19:14:38 46° SSW 19:14:38 46° SSW visible
27 Jan ? 16:58:03 10° WSW 17:04:35 49° S 17:10:15 10° E visible
27 Jan ? 18:45:14 10° W 18:51:18 48° S 18:52:20 43° SSE visible
27 Jan ? 20:33:00 10° W 20:33:36 12° WSW 20:33:36 12° WSW visible
28 Jan ? 18:21:20 10° W 18:27:34 49° S 18:30:04 30° SE visible
28 Jan ? 20:09:06 10° W 20:11:21 19° WSW 20:11:21 19° WSW visible
29 Jan ? 17:57:24 10° W 18:03:49 49° S 18:07:52 19° ESE visible
29 Jan ? 19:45:11 10° W 19:49:08 25° SW 19:49:08 25° SW visible
30 Jan ? 17:33:28 10° W 17:40:02 50° S 17:45:42 10° ESE visible
30 Jan ? 19:21:14 10° W 19:26:25 27° SSW 19:26:59 26° SSW visible
